Temperatures and Conditions from around the state of pennsylvania

NOAA NWS Hourly Roundups by Site

Regional Weather Roundup for State College, PA

To Select Another Site Choose from List

Select Site:  

608
ASUS41 KCTP 140810
RWRCTP

REGIONAL WEATHER ROUNDUP
NATIONAL WEATHER SERVICE STATE COLLEGE PA
400 AM EDT TUE AUG 14 2018

Note: "fair" indicates few or no clouds below 12,000 feet with no
significant weather and/or obstructions to visibility.

* = STATION THAT DOES NOT REPORT PRECIPITATION /E.G. RAIN...SNOW...ETC/
    THUNDER OR FOG.

PAZ002>004-007>009-013>016-020>023-029>032-140900-
WESTERN PENNSYLVANIA

CITY           SKY/WX    TMP DP  RH WIND       PRES   REMARKS
ERIE           LGT RAIN  69  65  86 SE7       29.96F
MEADVILLE      LGT RAIN  66  66 100 CALM      30.00F
FRANKLIN*      MOCLDY    61  61 100 SW3       30.01S
NEW CASTLE     CLOUDY    63  63 100 CALM      30.00F
BEAVER COUNTY  NOT AVBL
BUTLER*        FAIR      62  62 100 SW3       30.00F FOG
PITTSBURGH INT MOCLDY    62  62 100 SW5       29.99F
PITTSBURGH     MOCLDY    62  62 100 S6        29.99F FOG
INDIANA*       CLOUDY    63  63 100 SW6       30.03F FOG
LATROBE        CLOUDY    63  63 100 S5        30.01F
WASHINGTON CO* MOCLDY    60  60 100 CALM      30.03F
$$

PAZ004>006-010>012-017>019-024>028-033>037-041-042-045-046-049>053-140900-
CENTRAL PENNSYLVANIA

CITY           SKY/WX    TMP DP  RH WIND       PRES   REMARKS
BRADFORD       CLOUDY    63  62  97 W5        29.99F
DUBOIS         FOG       63  63 100 W5        29.98F VSB 3/4
CLEARFIELD     CLOUDY    64  64 100 SW3       29.98S
JOHNSTOWN      LGT RAIN  61  58  90 W7        30.01F
ALTOONA        CLOUDY    66  62  87 W3        29.97F
STATE COLLEGE  NOT AVBL
WILLIAMSPORT   CLOUDY    68  66  93 W6        29.89F
SELINSGROVE    CLOUDY    68  66  93 NW6       29.90F
FT INDIANTOWN  MOCLDY    68  67  96 SW5       29.89F
CAPITAL CITY   CLOUDY    71  65  81 W6        29.90S
HARRISBURG     MOCLDY    70  66  87 NW8       29.89F
YORK           MOCLDY    68  66  93 W3        29.90F
$$

PAZ038>040-043-044-047-048-054-055-060>062-067>071-140900-
EASTERN PENNSYLVANIA

CITY           SKY/WX    TMP DP  RH WIND       PRES   REMARKS
SCRANTON       FAIR      67  66  97 CALM      29.89F
MOUNT POCONO   CLOUDY    61  61 100 CALM      29.92S FOG
ALLENTOWN      CLOUDY    70  67  90 CALM      29.88F
QUAKERTOWN*    CLOUDY    70  70 100 CALM      29.89S FOG
READING        CLOUDY    70  70 100 W5        29.87S
LANCASTER      FAIR      69  69 100 W6        29.89S
COATESVILLE    FOG       68  68 100 W6        29.90F VSB 1/4
POTTSTOWN      CLOUDY    66  66 100 CALM      29.89F FOG
BLUE BELL      CLOUDY    61  61 100 CALM      29.89F VSB 1/2
DOYLESTOWN     FOG       66  66 100 CALM      29.87F VSB 3/4
WILLOW GROVE   NOT AVBL
NORTH PHILA    FAIR      70  66  87 CALM      29.89F
PHILADELPHIA   FAIR      70  67  90 SW6       29.87F
$$



 

View Past Reports for State College, PA.

Products Courtesy of NOAA-NWS
NWS Information Parsing Script by Ken True at Saratoga Weather - Script by SE Lincoln Weather.